Regional Weather Roundup
Issued by NWS

Home | Current Version | Previous Version | Text Only | Print | Product List | Glossary On
Versions: 1 2 3 4 5 6 7 8 9 10 11 12 13 14 15 16 17 18 19 20 21 22 23 24 25 26 27 28 29 30 31 32 33 34 35 36 37 38 39 40 41 42 43 44 45 46 47 48 49 50
000
ASUS43 KTOP 211459
RWRKS

WEATHER ROUNDUP FOR KANSAS
NATIONAL WEATHER SERVICE GOODLAND KS
900 AM CST SAT JAN 21 2017

NOTE:  "FAIR" INDICATES FEW OR NO CLOUDS BELOW 12,000 FEET WITH NO
SIGNIFICANT WEATHER AND/OR OBSTRUCTIONS TO VISIBILITY.

KSZ001>006-013>018-027>032-041>047-211600-
NORTHWEST KANSAS

CITY           SKY/WX    TMP DP  RH WIND       PRES   REMARKS
GOODLAND       CLEAR     27  25  92 CALM      29.42R
HAYS           SUNNY     35  33  92 S5        29.47S
HILL CITY      CLOUDY    31  30  96 W5        29.46S
RUSSELL        SUNNY     32  31  96 W5        29.45S
$$

KSZ061>065-074>080-084>089-211600-
SOUTHWEST KANSAS

CITY           SKY/WX    TMP DP  RH WIND       PRES   REMARKS
DODGE CITY     SUNNY     32  30  92 SE5       29.45F
ELKHART          N/A     26  17  68 SW2         N/A
GARDEN CITY    SUNNY     33  30  88 E7        29.41F
GREAT BEND     SUNNY     32  30  92 SW7       29.49R
LIBERAL        CLOUDY    30  27  86 S7        29.42F
$$

KSZ066>073-081>083-090>101-211600-
SOUTHEAST KANSAS

CITY           SKY/WX    TMP DP  RH WIND       PRES   REMARKS
CHANUTE        SUNNY     40  37  89 S8        29.57R
COFFEYVILLE    SUNNY     41  38  89 SW6       29.60R
HUTCHINSON     SUNNY     35  32  88 S6        29.52R
MEDICINE LODGE   N/A     29  29 100 S3        29.53R
NEWTON         SUNNY     37  36  96 SW10      29.54R WCI  30
PARSONS        SUNNY     41  37  86 SW5       29.59R
WICHITA INTL   MOSUNNY   33  31  92 S3        29.54R
WICHITA JABRA  SUNNY     36  35  96 S5        29.54R
WINFIELD       MOSUNNY   36  34  92 SE5       29.58R
$$

KSZ007>012-019>026-033>040-048>060-102>105-211600-
NORTHEAST KANSAS

CITY           SKY/WX    TMP DP  RH WIND       PRES   REMARKS
CONCORDIA      SUNNY     35  34  96 W9        29.45F
EMPORIA        SUNNY     35  34  96 S10       29.54R WCI  27
LAWRENCE       CLOUDY    39  39 100 SE7       29.52R FOG
MANHATTAN      SUNNY     37  35  92 W5        29.49R
OLATHE IND     FOG       39  39 100 S12       29.53R VSB 1/2 WCI  32
OLATHE EXE     FOG       38  38 100 S6        29.52R VSB 3/4
SALINA         SUNNY     34  32  92 S5        29.49R
TOPEKA BILLARD FOG       35  33  92 S3        29.50R VSB 1/2
TOPEKA FORBES  FOG       37  35  92 S12       29.51R VSB 1/8 WCI  29
$$



USA.gov is the U.S. government's official web portal to all federal, state and local government web resources and services.